Regional Weather Roundup
Issued by NWS

Home | Current Version | Previous Version | Graphics & Text | Print | Product List | Glossary On
Versions: 1 2 3 4 5 6 7 8 9 10 11 12 13 14 15 16 17 18 19 20 21 22 23 24 25 26 27 28 29 30 31 32 33 34 35 36 37 38 39 40 41 42 43 44 45 46 47 48 49 50
000
ASUS43 KBIS 010820
RWRND

NORTH DAKOTA REGIONAL WEATHER ROUNDUP
NATIONAL WEATHER SERVICE BISMARCK ND
300 AM CDT WED OCT 01 2014

NOTE: "FAIR" INDICATES FEW OR NO CLOUDS BELOW 12,000 FEET WITH NO
SIGNIFICANT WEATHER AND/OR OBSTRUCTIONS TO VISIBILITY.


NDZ001>003-009>011-017-010900-
NORTHWEST NORTH DAKOTA

CITY           SKY/WX    TMP DP  RH WIND       PRES   REMARKS
WILLISTON      CLOUDY    54  51  90 W20G26    29.49R
MINOT          CLOUDY    51  50  96 W10       29.42R
MINOT AFB      CLOUDY    52  52 100 W9        29.42R
$$

NDZ018>021-031>035-040>046-010900-
SOUTHWEST NORTH DAKOTA

CITY           SKY/WX    TMP DP  RH WIND       PRES   REMARKS
BISMARCK       CLOUDY    55  52  89 SW9       29.53R
DICKINSON      CLOUDY    54  51  90 W20       29.54R
GARRISON         N/A     52  50  93 W13       29.46R
HETTINGER ARPT MOCLDY    52  49  89 W14       29.62R
$$

NDZ004>008-012>016-024-026-027-054-010900-
NORTHEAST NORTH DAKOTA

CITY           SKY/WX    TMP DP  RH WIND       PRES   REMARKS
GRAND FORKS    PTCLDY    62  56  80 S21G35    29.49F
GRND FRKS AFB  MOCLDY    60  60  99 S18G29    29.48F
DEVILS LAKE    CLOUDY    55  48  76 SW23G32   29.41R
$$

NDZ022-023-025-028>030-036>039-047>053-010900-
SOUTHEAST NORTH DAKOTA

CITY           SKY/WX    TMP DP  RH WIND       PRES   REMARKS
FARGO          PTCLDY    63  57  81 S21G30    29.58R
JAMESTOWN      CLOUDY    56  51  84 SW15G25   29.52R
$$



USA.gov is the U.S. government's official web portal to all federal, state and local government web resources and services.